Devils Lake, ND

5:47 AM CDT on May 28, 2018 (GMT -0500)
Devils Lake Municipal

Weather History for KDVL - December, 2013

Change the Weather History Date:

Saturday, December 28, 2013

  Actual Average Record
Temperature  
Mean Temperature 11 °F -  
Max Temperature 33 °F 18 °F 46 °F (1980)
Min Temperature -11 °F 0 °F -27 °F (1993)
Degree Days  
Heating Degree Days 54    
Moisture  
Dew Point -4 °F    
Average Humidity 65    
Maximum Humidity 86    
Minimum Humidity 49    
Precipitation  
Precipitation 0.00 in - - ()
Sea Level Pressure  
Sea Level Pressure 30.02 in    
Wind  
Wind Speed 19 mph (NNE)    
Max Wind Speed 37 mph    
Max Gust Speed 46 mph    
Visibility 4 miles    
Events      
Averages and records for this station are not official NWS values.
T = Trace of Precipitation, MM = Missing Value Source: NWS Daily Summary

Daily Weather History Graph

Daily Weather History Graph

Search for Another Location

Airport or City:

Astronomy

Dec. 28, 2013 Rise Set
Actual Time 8:25 AM CST 4:49 PM CST
Civil Twilight 7:49 AM CST 5:25 PM CST
Nautical Twilight 7:09 AM CST 6:05 PM CST
Astronomical Twilight 6:31 AM CST 6:43 PM CST
Moon 3:53 AM CST 1:50 PM CST
Length of Visible Light 9h 36m
Length of Day
8h 23m
Waning Crescent, 19% of the Moon is Illuminated
Dec 28
Waning Crescent
Jan 1
New
Jan 7
First Quarter
Jan 15
Full
Jan 23
Last Quarter

Hourly Weather History & Observations

Time (CST) Temp. Windchill Dew Point Humidity Pressure Visibility Wind Dir Wind Speed Gust Speed Precip Events Conditions
12:15 AM 33.8 °F 24.3 °F 28.4 °F 81% 29.77 in 10.0 mi SSE 13.8 mph - N/A   Overcast
12:35 AM 33.8 °F 25.3 °F 28.4 °F 81% 29.76 in 9.0 mi SSE 11.5 mph - N/A   Overcast
12:55 AM 33.8 °F 24.8 °F 28.4 °F 81% 29.74 in 8.0 mi SE 12.7 mph - N/A   Overcast
1:15 AM 33.8 °F 24.3 °F 28.4 °F 81% 29.73 in 7.0 mi SSE 13.8 mph 18.4 mph N/A   Overcast
1:35 AM 33.8 °F 24.8 °F 28.4 °F 81% 29.72 in 4.0 mi SE 12.7 mph - N/A   Overcast
1:55 AM 33.8 °F 23.5 °F 28.4 °F 81% 29.71 in 3.0 mi SE 16.1 mph - N/A   Overcast
2:15 AM 33.8 °F 25.3 °F 28.4 °F 81% 29.71 in 2.5 mi SE 11.5 mph - N/A   Overcast
2:35 AM 33.8 °F 24.3 °F 28.4 °F 81% 29.71 in 2.0 mi ESE 13.8 mph - N/A   Overcast
2:55 AM 30.2 °F 20.2 °F 26.6 °F 86% 29.71 in 1.2 mi East 12.7 mph - N/A   Overcast
3:15 AM 30.2 °F 19.3 °F 24.8 °F 80% 29.70 in 1.0 mi East 15.0 mph - N/A   Overcast
3:35 AM 28.4 °F 16.6 °F 24.8 °F 86% 29.70 in 1.0 mi East 16.1 mph 19.6 mph N/A   Overcast
3:55 AM 28.4 °F 18.5 °F 23.0 °F 80% 29.69 in 1.0 mi East 11.5 mph - N/A   Overcast
4:15 AM 26.6 °F 14.3 °F 21.2 °F 80% 29.68 in 0.8 mi East 16.1 mph 19.6 mph N/A   Overcast
4:35 AM 24.8 °F 11.1 °F 19.4 °F 80% 29.68 in 0.5 mi East 18.4 mph - N/A   Overcast
4:55 AM 24.8 °F 11.5 °F 19.4 °F 80% 29.67 in 0.5 mi ENE 17.3 mph - N/A   Overcast
5:15 AM 21.2 °F 6.0 °F 15.8 °F 80% 29.68 in 0.8 mi ENE 19.6 mph - N/A   Overcast
5:35 AM 19.4 °F 3.6 °F 14.0 °F 80% 29.71 in 1.0 mi NE 19.6 mph 24.2 mph N/A   Overcast
5:55 AM 15.8 °F -0.6 °F 10.4 °F 79% 29.72 in 1.5 mi NE 18.4 mph 25.3 mph N/A   Overcast
6:15 AM 12.2 °F -7.1 °F 5.0 °F 73% 29.73 in 2.0 mi NE 23.0 mph 27.6 mph N/A   Overcast
6:35 AM 10.4 °F -8.6 °F 3.2 °F 73% 29.74 in 2.0 mi NE 20.7 mph 25.3 mph N/A   Overcast
6:55 AM 10.4 °F -7.7 °F 1.4 °F 67% 29.76 in 2.0 mi NE 18.4 mph - N/A   Overcast
7:15 AM 8.6 °F -11.0 °F 1.4 °F 73% 29.78 in 1.5 mi NE 20.7 mph 28.8 mph N/A   Overcast
7:35 AM 8.6 °F -10.5 °F 1.4 °F 73% 29.78 in 1.5 mi NNE 19.6 mph 26.5 mph N/A   Overcast
7:55 AM 8.6 °F -11.9 °F 1.4 °F 73% 29.79 in 1.8 mi NNE 23.0 mph 27.6 mph N/A   Overcast
8:15 AM 8.6 °F -11.0 °F 1.4 °F 73% 29.80 in 1.5 mi NE 20.7 mph 27.6 mph N/A   Overcast
8:35 AM 8.6 °F -13.1 °F -0.4 °F 67% 29.81 in 1.0 mi NNE 26.5 mph 31.1 mph N/A   Overcast
8:55 AM 8.6 °F -11.0 °F -0.4 °F 67% 29.82 in 0.8 mi NNE 20.7 mph 31.1 mph N/A   Overcast
9:15 AM 6.8 °F -14.7 °F -2.2 °F 67% 29.86 in 0.5 mi NNE 24.2 mph 35.7 mph N/A   Overcast
9:35 AM 6.8 °F -14.7 °F -2.2 °F 67% 29.89 in 0.5 mi NNE 24.2 mph 33.4 mph N/A   Overcast
9:55 AM 6.8 °F -15.5 °F -4.0 °F 61% 29.91 in 0.5 mi NNE 26.5 mph 32.2 mph N/A   Overcast
10:15 AM 5.0 °F -19.4 °F -4.0 °F 66% 29.91 in 0.5 mi NNE 31.1 mph 34.5 mph N/A   Overcast
10:35 AM 5.0 °F -18.7 °F -4.0 °F 66% 29.92 in 0.5 mi NNE 28.8 mph 33.4 mph N/A   Overcast
10:55 AM 3.2 °F -22.9 °F -5.8 °F 66% 29.93 in 0.5 mi NNE 34.5 mph 39.1 mph N/A   Overcast
11:15 AM 3.2 °F -20.3 °F -5.8 °F 66% 29.95 in 1.2 mi NNE 26.5 mph 39.1 mph N/A   Overcast
11:35 AM 3.2 °F -19.5 °F -7.6 °F 61% 29.98 in 1.8 mi North 24.2 mph 36.8 mph N/A   Overcast
11:55 AM 3.2 °F -20.3 °F -7.6 °F 61% 29.99 in 1.0 mi NNE 26.5 mph 35.7 mph N/A   Overcast
12:15 PM 1.4 °F -23.2 °F -7.6 °F 66% 30.01 in 0.5 mi NNE 27.6 mph 38.0 mph N/A   Overcast
12:35 PM 1.4 °F -25.7 °F -9.4 °F 61% 30.01 in 0.2 mi North 35.7 mph 39.1 mph N/A   Overcast
12:55 PM -0.4 °F -28.5 °F -11.2 °F 60% 30.04 in 0.2 mi North 36.8 mph 42.6 mph N/A   Overcast
1:15 PM -0.4 °F -27.8 °F -11.2 °F 60% 30.05 in 0.2 mi North 34.5 mph 41.4 mph N/A   Overcast
1:35 PM -2.2 °F -30.9 °F -11.2 °F 66% 30.06 in 0.2 mi North 36.8 mph 42.6 mph N/A   Overcast
1:55 PM -2.2 °F -30.9 °F -13.0 °F 60% 30.08 in 0.2 mi North 36.8 mph 46.0 mph N/A   Overcast
2:15 PM -2.2 °F -30.9 °F -14.8 °F 55% 30.09 in 0.2 mi North 36.8 mph 41.4 mph N/A   Overcast
2:35 PM -4.0 °F -32.8 °F -14.8 °F 60% 30.10 in 0.2 mi North 34.5 mph 42.6 mph N/A   Overcast
2:55 PM -4.0 °F -31.3 °F -14.8 °F 60% 30.13 in 0.2 mi North 29.9 mph 40.3 mph N/A   Overcast
3:15 PM -4.0 °F -32.0 °F -14.8 °F 60% 30.14 in 0.2 mi North 32.2 mph 38.0 mph N/A   Overcast
3:35 PM -4.0 °F -31.3 °F -14.8 °F 60% 30.17 in 0.2 mi North 29.9 mph - N/A   Overcast
3:55 PM -5.8 °F -32.4 °F -14.8 °F 65% 30.20 in 0.2 mi North 26.5 mph 36.8 mph N/A   Overcast
4:15 PM -5.8 °F -33.3 °F -16.6 °F 60% 30.23 in 0.2 mi North 28.8 mph 32.2 mph N/A   Overcast
4:35 PM -5.8 °F -32.9 °F -16.6 °F 60% 30.24 in 0.5 mi North 27.6 mph 33.4 mph N/A   Overcast
4:55 PM -7.6 °F -33.9 °F -18.4 °F 59% 30.26 in 2.5 mi North 24.2 mph 32.2 mph N/A   Overcast
5:15 PM -7.6 °F -31.7 °F -18.4 °F 59% 30.28 in 2.5 mi North 19.6 mph - N/A   Mostly Cloudy
5:35 PM -7.6 °F -30.5 °F -20.2 °F 54% 30.31 in 10.0 mi North 17.3 mph - N/A   Scattered Clouds
5:55 PM -7.6 °F -32.9 °F -20.2 °F 54% 30.31 in 8.0 mi North 21.9 mph 29.9 mph N/A   Partly Cloudy
6:15 PM -7.6 °F -33.4 °F -18.4 °F 59% 30.33 in 10.0 mi North 23.0 mph 26.5 mph N/A   Clear
6:35 PM -9.4 °F -34.7 °F -20.2 °F 59% 30.34 in 10.0 mi North 20.7 mph 26.5 mph N/A   Clear
6:55 PM -9.4 °F -32.1 °F -22.0 °F 54% 30.34 in 10.0 mi North 16.1 mph 21.9 mph N/A   Clear
7:15 PM -9.4 °F -33.5 °F -23.8 °F 49% 30.35 in 10.0 mi North 18.4 mph - N/A   Clear
7:35 PM -9.4 °F -34.1 °F -23.8 °F 49% 30.36 in 10.0 mi North 19.6 mph 26.5 mph N/A   Clear
7:55 PM -9.4 °F -33.5 °F -23.8 °F 49% 30.37 in 10.0 mi North 18.4 mph - N/A   Clear
8:15 PM -11.2 °F -37.0 °F -25.6 °F 49% 30.38 in 10.0 mi North 20.7 mph - N/A   Clear
8:35 PM -11.2 °F -34.4 °F -25.6 °F 49% 30.38 in 10.0 mi NNW 16.1 mph - N/A   Clear
8:55 PM -11.2 °F -33.7 °F -25.6 °F 49% 30.39 in 10.0 mi NNW 15.0 mph - N/A   Clear
9:15 PM -11.2 °F -35.2 °F -25.6 °F 49% 30.40 in 10.0 mi NNW 17.3 mph 25.3 mph N/A   Clear
9:35 PM -11.2 °F -32.9 °F -25.6 °F 49% 30.40 in 10.0 mi NNW 13.8 mph - N/A   Clear
9:55 PM -11.2 °F -33.7 °F -25.6 °F 49% 30.40 in 10.0 mi NNW 15.0 mph - N/A   Partly Cloudy
10:15 PM -11.2 °F -32.9 °F -23.8 °F 54% 30.40 in 10.0 mi NNW 13.8 mph - N/A   Mostly Cloudy
10:35 PM -11.2 °F -35.2 °F -23.8 °F 54% 30.40 in 10.0 mi NNW 17.3 mph - N/A   Overcast
10:55 PM -11.2 °F -36.4 °F -23.8 °F 54% 30.40 in 10.0 mi NNW 19.6 mph - N/A   Overcast
11:15 PM -9.4 °F -32.8 °F -23.8 °F 49% 30.41 in 10.0 mi NNW 17.3 mph - N/A   Overcast
11:35 PM -9.4 °F -33.5 °F -23.8 °F 49% 30.40 in 10.0 mi NNW 18.4 mph 23.0 mph N/A   Overcast
11:55 PM -9.4 °F -32.8 °F -23.8 °F 49% 30.40 in 10.0 mi North 17.3 mph - N/A   Overcast